Weather History for Terrell, TX

Change the Weather History Date:

Monday, June 17, 2013

  Actual Average (KDFW) Record (KDFW)
Temperature  
Mean Temperature 80 °F 82 °F  
Max Temperature 93 °F 92 °F 105 °F (1911)
Min Temperature 69 °F 72 °F 58 °F (1981)
Degree Days  
Heating Degree Days 0 0  
Month to date heating degree days 0  
Since 1 June heating degree days 0  
Since 1 July heating degree days 2284  
Cooling Degree Days 15 17  
Month to date cooling degree days 258  
Year to date cooling degree days 680  
Since 1 June cooling degree days 258  
Growing Degree Days 30 (Base 50)    
Moisture  
Dew Point 72 °F    
Average Humidity 77    
Maximum Humidity 100    
Minimum Humidity 48    
Precipitation  
Precipitation 0.39 in 0.12 in 1.71 in (1914)
Month to date precipitation 2.31  
Year to date precipitation 18.56  
Sea Level Pressure  
Sea Level Pressure 29.93 in    
Wind  
Wind Speed 7 mph (SSE)    
Max Wind Speed 25 mph    
Max Gust Speed 33 mph    
Visibility 9 miles    
Events Rain    
T = Trace of Precipitation, MM = Missing Value Source: NWS Daily Summary

Daily Weather History Graph

Daily Weather History Graph

Search for Another Location

Airport:

Trip Planner

Search our weather history database for the weather conditions in past years. The results will help you decide how hot, cold, wet, or windy it might be!

Date:

Astronomy

Jun. 17, 2013 Rise Set
Actual Time 6:17 AM CDT 8:35 PM CDT
Civil Twilight 5:48 AM CDT 9:03 PM CDT
Nautical Twilight 5:13 AM CDT 9:38 PM CDT
Astronomical Twilight 4:35 AM CDT 10:16 PM CDT
Moon 2:30 PM CDT (6/17) 1:35 AM CDT (6/17)
Length of Visible Light 15h 15m
Length of Day
14h 18m
First Quarter, 60% of the Moon is Illuminated
Jun 17
First Quarter
Jun 23
Full
Jun 29
Last Quarter
Jul 8
New
Jul 15
First Quarter

Hourly Weather History & Observations

Time (CDT) Temp. Heat Index Dew Point Humidity Pressure Visibility Wind Dir Wind Speed Gust Speed Precip Events Conditions
12:53 AM 82.0 °F 84.9 °F 68.0 °F 62% 29.93 in 10.0 mi SSE 6.9 mph - N/A   Partly Cloudy
1:53 AM 80.1 °F 83.2 °F 70.0 °F 71% 29.90 in 10.0 mi SSE 6.9 mph - N/A   Clear
2:53 AM 79.0 °F - 73.0 °F 82% 29.88 in 10.0 mi SSE 4.6 mph - N/A   Clear
3:53 AM 79.0 °F - 73.9 °F 84% 29.88 in 10.0 mi SSE 4.6 mph - N/A   Clear
4:53 AM 80.1 °F 84.5 °F 73.9 °F 81% 29.91 in 10.0 mi South 4.6 mph - N/A   Overcast
5:53 AM 79.0 °F - 73.9 °F 84% 29.90 in 10.0 mi South 6.9 mph - N/A   Clear
6:53 AM 78.1 °F - 73.9 °F 87% 29.93 in 10.0 mi SSW 8.1 mph - N/A   Scattered Clouds
7:53 AM 79.0 °F - 73.9 °F 84% 29.95 in 10.0 mi SW 9.2 mph - N/A   Partly Cloudy
8:53 AM 73.0 °F - 68.0 °F 84% 30.02 in 4.0 mi WNW 25.3 mph 33.4 mph 0.04 in Rain Light Rain
8:58 AM 71.6 °F - 68.0 °F 88% 30.05 in 1.8 mi NNW 19.6 mph 33.4 mph 0.06 in Rain Heavy Rain
9:05 AM 71.6 °F - 68.0 °F 88% 30.07 in 2.0 mi North 12.7 mph 25.3 mph 0.10 in Rain Heavy Rain
9:24 AM 69.8 °F - 69.8 °F 100% 30.06 in 4.0 mi NNE 8.1 mph - 0.19 in Rain Rain
9:53 AM 70.0 °F - 68.0 °F 93% 30.04 in 6.0 mi NW 5.8 mph - 0.26 in Rain Rain
10:53 AM 71.1 °F - 70.0 °F 96% 29.92 in 10.0 mi ESE 11.5 mph - 0.09 in Rain Light Rain
11:53 AM 73.9 °F - 71.1 °F 91% 29.90 in 10.0 mi SE 8.1 mph - 0.00 in   Clear
12:53 PM 79.0 °F - 71.1 °F 77% 29.94 in 10.0 mi Calm Calm - N/A   Clear
1:53 PM 82.9 °F 87.0 °F 70.0 °F 65% 29.94 in 10.0 mi SW 4.6 mph - N/A   Scattered Clouds
2:53 PM 86.0 °F 91.5 °F 71.1 °F 61% 29.92 in 10.0 mi SW 5.8 mph - N/A   Partly Cloudy
3:53 PM 88.0 °F 94.7 °F 72.0 °F 59% 29.90 in 10.0 mi South 5.8 mph - N/A   Clear
4:53 PM 90.0 °F 95.4 °F 70.0 °F 52% 29.89 in 10.0 mi Calm Calm - N/A   Clear
5:53 PM 91.0 °F 96.6 °F 70.0 °F 50% 29.87 in 10.0 mi West 4.6 mph - N/A   Clear
6:53 PM 91.0 °F 95.6 °F 69.1 °F 48% 29.85 in 10.0 mi Calm Calm - N/A   Clear
7:53 PM 86.0 °F 93.8 °F 73.9 °F 67% 29.86 in 10.0 mi NE 5.8 mph - N/A   Partly Cloudy
8:53 PM 82.9 °F 90.8 °F 75.9 °F 79% 29.86 in 10.0 mi ENE 4.6 mph - N/A   Clear
9:53 PM 82.0 °F 88.6 °F 75.0 °F 79% 29.87 in 10.0 mi NE 3.5 mph - N/A   Clear
10:53 PM 81.0 °F 86.7 °F 75.0 °F 82% 29.90 in 10.0 mi North 5.8 mph - N/A   Mostly Cloudy
11:53 PM 81.0 °F 86.7 °F 75.0 °F 82% 29.91 in 10.0 mi NE 8.1 mph - N/A   Mostly Cloudy